EW5752 Weather Reports


time (UTC)temp
C
wind
direction
speed
KPH
gust
KPH
rain 1hr
cm
rain 24hr
cm
rain mn
cm
humidity
%
barometer
mb
20260504201917 26 110 0.0 0.0 0.00 0.00 0.00 34 1003.4
20260504201606 26 110 1.6 0.0 0.00 0.00 0.00 32 1003.4
20260504200917 26 155 0.0 8.0 0.00 0.00 0.00 35 1003.6
20260504200004 26 157 1.6 0.0 0.00 0.00 0.00 35 1003.7
20260504195905 26 157 0.0 6.4 0.00 0.00 0.00 33 1003.8
20260504194508 25 155 1.6 0.0 0.00 0.00 0.00 31 1003.9
20260504193735 26 0 0.0 0.0 0.00 0.00 0.00 36 1003.8
20260504193004 26 83 1.6 0.0 0.00 0.00 0.00 37 1003.9
20260504192709 26 133 0.0 3.2 0.00 0.00 0.00 37 1003.9
20260504191645 25 134 0.0 6.4 0.00 0.00 0.00 37 1003.9
20260504191506 25 199 1.6 0.0 0.00 0.00 0.00 38 1004.0
20260504190636 25 248 0.0 8.0 0.00 0.00 0.00 39 1004.0
20260504190104 24 316 1.6 0.0 0.00 0.00 0.00 37 1004.1
20260504185635 24 315 0.0 0.0 0.00 0.00 0.00 45 1004.5
20260504184604 23 234 0.0 4.8 0.00 0.00 0.00 40 1004.5
20260504184502 23 234 1.6 0.0 0.00 0.00 0.00 38 1004.5
20260504183007 22 234 1.6 0.0 0.00 0.00 0.00 43 1004.5
20260504180243 21 234 1.6 8.0 0.00 0.00 0.00 55 1004.8
20260504175306 21 234 1.6 8.0 0.00 0.00 0.00 46 1004.8
20260504174251 21 234 0.0 3.2 0.00 0.00 0.00 46 1005.0
20260504173219 20 234 0.0 0.0 0.00 0.00 0.00 52 1005.0
20260504173007 20 234 0.0 0.0 0.00 0.00 0.00 54 1005.0
20260504172153 20 234 0.0 0.0 0.00 0.00 0.00 50 1005.3
20260504171504 18 234 0.0 0.0 0.00 0.00 0.00 52 1005.4
20260504171128 18 234 0.0 0.0 0.00 0.00 0.00 56 1005.2
20260504170130 18 234 0.0 0.0 0.00 0.00 0.00 59 1005.2
20260504150553 12 234 0.0 3.2 0.00 0.00 0.00 73 1006.8
20260504130310 11 150 0.0 6.4 0.00 0.00 0.00 68 1005.6
20260504110453 11 182 0.0 0.0 0.00 0.00 0.00 66 1005.8
20260504100426 12 210 0.0 0.0 0.00 0.00 0.00 64 1005.6
20260504100137 12 210 0.0 0.0 0.00 0.00 0.00 63 1005.7
20260504090125 14 246 3.2 0.0 0.00 0.00 0.00 51 1005.6
20260504081508 14 217 0.0 0.0 0.00 0.00 0.00 58 1005.6
20260504081219 15 217 0.0 1.6 0.00 0.00 0.00 57 1005.5
20260504080207 15 233 0.0 0.0 0.00 0.00 0.00 53 1005.5
20260504070305 17 289 4.8 16.1 0.00 0.00 0.00 44 1005.3
20260504050720 20 113 0.0 3.2 0.00 0.00 0.00 39 1005.4
20260504050004 20 120 1.6 0.0 0.00 0.00 0.00 39 1005.5
20260504044621 20 52 1.6 0.0 0.00 0.00 0.00 38 1005.6
20260504044612 20 52 0.0 9.7 0.00 0.00 0.00 38 1005.5
20260504043556 20 339 0.0 8.0 0.00 0.00 0.00 38 1005.6
20260504041513 20 27 0.0 0.0 0.00 0.00 0.00 38 1005.3
20260504041506 20 27 1.6 0.0 0.00 0.00 0.00 38 1005.4
20260504040532 18 230 0.0 1.6 0.00 0.00 0.00 42 1005.5
20260504040012 17 103 0.0 0.0 0.00 0.00 0.00 48 1005.6
20260504035552 18 104 0.0 0.0 0.00 0.00 0.00 51 1005.3
20260504034518 18 104 0.0 0.0 0.00 0.00 0.00 50 1005.3
20260504034506 18 104 1.6 0.0 0.00 0.00 0.00 50 1005.4
20260504033445 18 104 0.0 6.4 0.00 0.00 0.00 49 1005.2
20260504033103 18 104 0.0 0.0 0.00 0.00 0.00 49 1005.2
20260504032456 18 104 0.0 0.0 0.00 0.00 0.00 51 1005.0
20260504031604 18 104 0.0 0.0 0.00 0.00 0.00 51 1005.1
20260504030307 20 104 0.0 0.0 0.00 0.00 0.00 50 1005.3
20260504030002 19 104 0.0 0.0 0.00 0.00 0.00 51 1005.4
20260504025259 20 104 0.0 0.0 0.00 0.00 0.00 48 1005.1
20260504024504 21 104 0.0 0.0 0.00 0.00 0.00 47 1005.1
20260504024229 21 104 0.0 3.2 0.00 0.00 0.00 48 1004.8
20260504023204 23 104 0.0 0.0 0.00 0.00 0.00 44 1004.8
20260504023003 23 104 0.0 0.0 0.00 0.00 0.00 45 1004.9
20260504022157 24 172 0.0 1.6 0.00 0.00 0.00 42 1004.6
20260504021215 25 248 0.0 0.0 0.00 0.00 0.00 38 1004.5
20260504020004 26 248 0.0 0.0 0.00 0.00 0.00 42 1004.5
20260504015102 26 248 0.0 0.0 0.00 0.00 0.00 41 1004.2
20260504014602 27 248 0.0 0.0 0.00 0.00 0.00 38 1004.3
20260504014113 27 248 0.0 0.0 0.00 0.00 0.00 41 1004.4
20260504013115 27 248 0.0 1.6 0.00 0.00 0.00 31 1004.4
20260504013004 27 248 0.0 0.0 0.00 0.00 0.00 28 1004.5
20260504010910 27 248 0.0 3.2 0.00 0.00 0.00 29 1004.3
20260504010004 27 248 1.6 0.0 0.00 0.00 0.00 32 1004.4
20260504005935 28 248 0.0 3.2 0.00 0.00 0.00 35 1004.3
20260504003808 28 248 0.0 0.0 0.00 0.00 0.00 29 1004.7
20260504003007 28 248 0.0 0.0 0.00 0.00 0.00 31 1004.7
20260504002817 28 248 0.0 0.0 0.00 0.00 0.00 29 1004.9
20260504001757 28 250 0.0 3.2 0.00 0.00 0.00 28 1004.9
20260504001608 28 251 0.0 0.0 0.00 0.00 0.00 28 1004.9
20260504000754 28 251 0.0 1.6 0.00 0.00 0.00 29 1004.7
20260504000005 28 288 0.0 0.0 0.00 0.00 0.00 29 1004.7
20260503235752 28 288 0.0 0.0 0.00 0.00 0.00 34 1005.1
20260503234800 27 288 0.0 8.0 0.00 0.00 0.00 33 1005.1
20260503234604 27 256 1.6 0.0 0.00 0.00 0.00 31 1005.2
20260503233754 27 240 0.0 8.0 0.00 0.00 0.00 29 1005.1
20260503233004 27 333 0.0 0.0 0.00 0.00 0.00 32 1005.2
20260503232731 28 344 0.0 0.0 0.00 0.00 0.00 32 1005.5
20260503231748 27 333 0.0 0.0 0.00 0.00 0.00 30 1005.5
20260503231606 27 333 1.6 0.0 0.00 0.00 0.00 31 1005.6
20260503230805 27 325 3.2 3.2 0.00 0.00 0.00 33 1005.9
20260503230133 27 329 3.2 0.0 0.00 0.00 0.00 32 1005.9
20260503224656 28 136 0.0 6.4 0.00 0.00 0.00 30 1006.1
20260503224506 27 137 0.0 0.0 0.00 0.00 0.00 31 1006.2
20260503223010 27 145 1.6 0.0 0.00 0.00 0.00 33 1006.4
20260503222625 27 100 1.6 4.8 0.00 0.00 0.00 31 1006.7
20260503221612 27 257 3.2 11.3 0.00 0.00 0.00 34 1006.7
20260503221503 26 257 4.8 0.0 0.00 0.00 0.00 30 1006.7
20260503220616 27 316 3.2 11.3 0.00 0.00 0.00 34 1006.8
20260503220003 27 312 3.2 0.0 0.00 0.00 0.00 30 1006.8
20260503215621 27 241 1.6 9.7 0.00 0.00 0.00 34 1007.0
20260503214607 27 257 0.0 1.6 0.00 0.00 0.00 35 1007.0
20260503214508 27 260 0.0 0.0 0.00 0.00 0.00 31 1007.0
20260503213602 27 308 0.0 1.6 0.00 0.00 0.00 33 1007.3
20260503213003 26 308 0.0 0.0 0.00 0.00 0.00 32 1007.3
20260503212621 27 309 0.0 9.7 0.00 0.00 0.00 30 1007.5
20260503211604 26 315 1.6 0.0 0.00 0.00 0.00 34 1007.6
20260503210535 26 311 1.6 0.0 0.00 0.00 0.00 35 1007.6
20260503210105 26 260 1.6 0.0 0.00 0.00 0.00 32 1007.6
20260503205533 26 145 0.0 1.6 0.00 0.00 0.00 31 1007.8
20260503204605 26 357 1.6 0.0 0.00 0.00 0.00 32 1007.8
20260503204546 26 357 0.0 9.7 0.00 0.00 0.00 32 1007.8
20260503203537 26 89 0.0 0.0 0.00 0.00 0.00 33 1008.0
20260503203104 26 89 0.0 0.0 0.00 0.00 0.00 32 1008.1
20260503202547 26 0 0.0 1.6 0.00 0.00 0.00 33 1008.1